Location: Cheyres
(46.8153°N, 6.7877°E)
Time: 01:21:46
(UTC+00:00)

Tiros 1 - Pass Details

Date: 31 May 2022
Orbit: 629 x 663 km, 48.4° (Epoch: 05 July)

Event Time Altitude Azimuth Distance (km) Brightness Sun altitude
Exits shadow 01:17:27 - 274° (W) 2,675 10.1 -17.2°
Reaches altitude 10° 01:19:09 10° 276° (W) 2,012 9.5 -17.0°
Maximum altitude 01:23:47 72° 1° (N) 670 7.3 -16.7°
Drops below altitude 10° 01:28:27 10° 86° (E) 2,028 10.1 -16.3°
Sets 01:30:48 0° 88° (E) 2,943 11.0 -16.1°
